Location: Unspecified
(0.0000°N, 0.0000°E)
Time: 23:19:10
(UTC+00:00)

Tiros 1 - All Passes

Search period start: 19 November 2019 00:00
Search period end: 29 November 2019 00:00
Orbit: 630 x 664 km, 48.4° (Epoch: 18 November)

Date Brightness Start Highest point End Pass type
(mag) Time Alt. Az. Time Alt. Az. Time Alt. Az.
19 Nov - 10:04:17 10° S 10:07:52 22° SE 10:11:25 10° E daylight
19 Nov - 11:45:54 10° WSW 11:49:53 28° NW 11:53:50 10° N daylight
19 Nov - 22:16:18 10° NNW 22:20:44 39° NE 22:25:11 10° ESE night (unlit)
19 Nov - 23:59:45 10° W 00:02:47 17° SW 00:05:50 10° S night (unlit)
20 Nov - 10:29:13 10° SSW 10:33:53 73° SE 10:38:30 10° NE daylight
20 Nov - 21:03:29 10° NE 21:04:38 11° NE 21:05:47 10° ENE night (unlit)
20 Nov - 22:42:02 10° NW 22:46:42 60° SW 22:51:26 10° SSE night (unlit)
21 Nov - 09:14:29 10° S 09:17:50 19° SE 09:21:10 10° E daylight
21 Nov - 10:55:43 10° WSW 10:59:52 32° NW 11:03:59 10° NNE daylight
21 Nov - 21:26:24 10° NNW 21:30:41 34° NE 21:35:01 10° ESE night (unlit)
21 Nov - 23:09:25 10° W 23:12:44 19° SW 23:16:05 10° S night (unlit)
22 Nov - 09:39:13 10° SSW 09:43:52 64° SE 09:48:27 10° NE daylight
22 Nov - 21:51:58 10° NW 21:56:40 69° SW 22:01:26 10° SSE night (unlit)
23 Nov - 08:24:43 10° S 08:27:48 17° SE 08:30:51 10° E daylight
23 Nov - 10:05:33 10° WSW 10:09:50 36° NW 10:14:06 10° NNE daylight
23 Nov - 20:36:32 10° N 20:40:39 30° NE 20:44:50 10° ESE night (unlit)
23 Nov - 22:19:08 10° W 22:22:42 21° SW 22:26:17 10° S night (unlit)
24 Nov - 08:49:14 10° SSW 08:53:51 56° SE 08:58:24 10° NE daylight
24 Nov - 10:34:32 10° WNW 10:35:53 11° NW 10:37:15 10° NNW daylight
24 Nov - 21:01:56 10° NW 21:06:38 79° SW 21:11:24 10° SE night (unlit)
25 Nov - 07:35:00 10° SSE 07:37:45 15° SE 07:40:30 10° E daylight
25 Nov - 09:15:24 10° WSW 09:19:49 41° NW 09:24:11 10° NNE daylight
25 Nov - 19:46:40 10° N 19:50:37 27° NE 19:54:37 10° ESE night (unlit)
25 Nov - 21:28:53 10° WNW 21:32:39 23° SW 21:36:27 10° S night (unlit)
26 Nov - 07:59:15 10° SSW 08:03:49 49° SE 08:08:19 10° NE daylight
26 Nov - 09:43:46 10° WNW 09:45:51 13° NW 09:47:56 10° NNW daylight
26 Nov - 20:11:55 10° NW 20:16:37 89° SW 20:21:22 10° SE visible
27 Nov - 06:45:22 10° SSE 06:47:43 14° SE 06:50:03 10° E daylight
27 Nov - 08:25:16 10° SW 08:29:48 47° NW 08:34:16 10° NNE daylight
27 Nov - 18:56:50 10° N 19:00:35 24° NE 19:04:23 10° ESE visible
27 Nov - 20:38:41 10° WNW 20:42:37 26° SW 20:46:36 10° S visible
28 Nov - 07:09:17 10° SSW 07:13:47 43° SE 07:18:13 10° ENE daylight
28 Nov - 08:53:13 10° W 08:55:49 15° NW 08:58:23 10° NNW daylight
28 Nov - 19:21:55 10° NW 19:26:34 81° NE 19:31:19 10° SE visible
